sat.trackr.live / text

‹ back to catalog

TRANSPORTER-13 OBJECT M

NORAD 63221 · 2025-052M

PAYLOAD ACTIVE UNKNOWN

§ Identity

Operator
Country
TBD
Launch date
2025-03-15
Launch site
AFWTR
Launch vehicle
Mass (kg)
RCS (m²)

External: N2YO · Heavens-Above · Gunter

§ Orbital elements

Epoch: 2026-05-25T03:02:23.421408Z

Period
94.63 min
Inclination
97.3918°
Eccentricity
0.0002519
Mean motion
15.21734207 rev/d
Perigee alt
498.9 km
Apogee alt
502.3 km
Semi-major
6,878.7 km
B*
1.4858e-4
RAAN
37.6854°
Arg perigee
191.0891°
Mean anomaly
169.0290°
Rev number
6,633

§ Raw data

TRANSPORTER-13 OBJECT M1 63221U 25052M   26145.12665997  .00003297  00000+0  14858-3 0  99902 63221  97.3918  37.6854 0002519 191.0891 169.0290 15.21734207 66339

JSON: /api/v1/satellites/63221 · /tle

For live sub-satellite position, see the globe view (requires WebGL).

§ Visibility from observer

Set your observer location to see the next 7 days of passes ≥ 10°. The values pass through the URL so the page stays shareable.

No JS? Fill the form by hand. The geolocation button needs JavaScript.